Lid_Strength_Index
-0 1 2 3 9 10 12 11 7 8 9 6 5 6 8 7 8 12 2 1 0 0 -0 -1 -1 -2 -2 -1 -1 -1 -1 -1 -1 -1 -1 -1 -1 -1 -1 -1 -1 -1 -1 -1 -1 -1 -1 -1 -1
3 3 3 6 11 15 12 8 9 8 6 5 5 6 7 8 4 3 3 1 1 -0 -0 -0 -1 -1 -2 -2 -2 -2 -2 -1 -1 -1 -1 -1 -1 -1 -1 -1 -1 -1 -1 -1 -1 -1 -1 -1 -1
1 3 7 8 11 15 12 8 8 6 5 6 6 5 6 7 3 3 1 1 1 0 -0 -1 -1 -1 -2 -2 -2 -2 -2 -2 -1 -1 -1 -1 -1 -1 -1 -1 -1 -1 -1 -1 -1 -1 -1 -1 -1
4 5 6 9 11 10 9 7 6 6 5 5 5 8 4 2 3 1 0 0 0 0 0 -1 -1 -2 -2 -2 -2 -2 -2 -1 -1 -1 -1 -1 -1 -1 -1 -1 -2 -1 -1 -1 -1 -2 -2 -1 -1
4 7 9 12 11 9 7 6 6 7 6 6 5 8 6 3 1 1 1 0 1 0 -0 -0 -2 -2 -2 -2 -2 -1 -1 -1 -2 -2 -2 -2 -2 -2 -2 -2 -2 -1 -1 -1 -1 -2 -2 -2 -1
9 7 11 13 11 8 7 7 5 6 6 6 6 7 6 2 2 1 0 1 -0 0 -0 -0 -2 -2 -2 -2 -2 -2 -2 -2 -2 -2 -2 -2 -2 -2 -2 -2 -2 -2 -2 -2 -2 -2 -2 -2 -2
10 9 11 10 9 8 8 7 7 6 6 6 5 8 5 3 1 1 1 1 0 -0 0 0 -0 -1 -2 -2 -2 -2 -2 -2 -2 -2 -2 -2 -2 -2 -2 -2 -2 -2 -2 -2 -2 -2 -2 -2 -2
7 8 10 9 12 9 8 7 6 6 6 3 3 8 8 4 1 1 2 2 1 1 1 1 0 -0 -0 -1 -2 -2 -2 -2 -2 -2 -2 -2 -2 -2 -2 -3 -2 -2 -2 -2 -2 -2 -1 -1 -1
5 10 12 11 10 8 7 7 5 4 5 4 4 4 3 2 1 2 3 2 2 1 1 0 0 0 -0 -0 -1 -2 -2 -2 -2 -2 -2 -1 -0 -0 -1 -1 -2 -2 -2 -2 -2 -2 -2 -2 -2
7 9 10 7 6 8 7 8 6 5 6 6 5 3 2 2 2 3 2 3 3 2 1 1 2 1 0 -0 0 0 -1 -0 -0 -0 0 -1 0 -1 -0 -2 -2 -2 -2 -3 -2 -2 -3 -2 -1
8 10 8 7 6 6 6 7 6 6 7 6 6 5 3 3 3 3 3 3 3 2 1 2 3 1 0 0 1 3 2 1 0 -0 -0 0 0 0 0 0 -0 -1 -3 -1 -1 -1 -1 -1 -1
10 8 7 7 7 7 6 5 6 6 6 4 4 3 3 3 4 3 3 3 2 2 2 2 1 2 1 0 0 0 0 1 1 0 0 1 1 1 1 0 0 1 1 1 1 1 1 1 0
8 8 7 6 7 8 5 6 6 6 4 3 3 3 4 4 3 3 2 2 2 5 3 1 0 0 0 0 1 1 1 1 1 0 0 0 1 1 1 1 0 1 1 2 2 2 0 0 0
8 8 8 7 8 7 7 6 6 5 4 4 4 4 4 4 4 3 3 3 3 3 3 1 1 1 1 1 1 1 1 1 1 1 1 0 1 1 1 2 1 1 1 1 1 2 1 1 1
7 10 8 8 8 7 6 8 7 5 4 5 4 4 4 4 3 3 2 2 2 1 1 1 1 1 1 1 1 1 1 0 1 1 0 0 1 1 1 1 1 1 1 1 1 2 1 1 1
10 10 13 9 6 6 7 10 7 5 5 5 5 5 5 4 3 3 2 2 1 1 1 1 0 1 1 1 1 1 1 1 1 0 1 0 0 1 1 1 1 1 1 2 1 1 2 2 2
11 13 10 9 7 7 8 10 6 5 5 6 6 6 5 5 4 3 2 2 1 1 1 1 1 1 1 1 1 1 1 1 1 1 1 0 0 0 1 1 1 0 1 1 1 1 3 3 3
12 11 11 10 9 8 11 10 7 6 5 6 6 6 6 5 5 3 2 2 1 1 1 2 1 1 1 1 1 1 1 1 1 1 0 0 0 -0 1 1 1 0 2 2 1 1 1 2 4
9 10 11 9 8 9 10 10 8 7 7 8 7 6 6 5 4 3 2 3 2 1 1 2 1 2 1 1 2 2 2 2 3 1 0 0 -0 -0 1 1 1 1 2 2 2 1 3 2 2
8 10 10 9 8 9 10 9 8 7 7 7 7 7 6 6 6 4 4 3 3 2 2 1 1 1 2 3 3 3 3 2 2 1 1 -0 0 -0 -0 0 0 0 1 2 1 2 2 2 1
9 10 10 10 9 9 9 11 10 7 6 6 6 6 6 6 6 4 4 4 2 2 2 2 1 2 4 3 3 2 2 2 2 2 2 1 -0 0 1 1 1 1 2 2 2 2 3 4 2
11 8 8 8 10 13 10 15 11 9 8 7 7 6 6 5 5 4 4 4 3 2 1 1 2 2 2 2 2 2 3 4 3 3 2 1 1 1 0 1 1 2 1 2 2 2 2 2 4
9 7 8 9 11 13 11 14 12 9 10 8 7 6 6 5 5 5 4 3 3 2 2 2 3 2 1 2 1 2 3 3 2 3 2 2 2 2 1 1 1 1 1 2 2 2 4 4 5
6 8 9 10 12 15 12 12 12 11 10 8 7 6 5 5 5 5 4 3 3 3 4 2 2 2 1 2 1 2 3 3 3 3 3 3 3 3 2 2 1 1 3 3 3 3 3 4 5
9 12 15 16 15 16 11 12 13 9 8 8 7 7 6 5 4 4 4 4 4 4 4 3 3 3 2 2 2 2 2 3 3 3 3 4 4 3 4 3 2 2 2 2 3 3 3 3 4
10 11 15 19 17 16 11 14 11 8 7 7 6 7 6 6 6 5 5 5 4 4 4 4 4 4 4 2 2 2 2 3 3 3 3 4 4 2 3 3 2 2 2 3 3 3 3 3 3
9 12 10 13 13 15 13 11 8 8 8 7 7 6 7 7 6 5 5 5 4 4 4 4 4 5 4 3 2 2 2 3 4 3 3 4 3 3 3 3 3 4 4 4 4 4 5 4 4
9 8 13 13 19 18 14 13 13 9 8 7 8 7 6 6 6 5 5 4 5 4 4 5 5 5 5 3 3 2 3 3 3 2 3 3 3 3 3 4 4 5 4 4 4 5 4 4 4
10 11 11 11 13 17 18 15 9 10 8 8 8 7 7 7 6 6 5 5 5 5 5 5 5 5 4 3 3 3 4 3 2 4 4 4 4 4 4 5 4 4 5 4 4 5 5 5 4
9 11 11 15 15 14 14 14 8 8 7 7 7 7 7 7 5 5 5 5 5 5 5 5 5 5 3 3 3 3 3 4 3 4 4 4 4 4 4 3 4 4 4 4 4 5 4 4 3